[[{"header":{"parameterUnit":"m.s-1","parameterCategory":2,"la1":30.2992,"la2":30.254,"lo1":-89.0895,"lo2":-89.0443,"dy":0.0025,"dx":0.0025,"nx":19,"ny":19,"refTime":"2026-05-13T21:00:00:Z","depth":"0","parameterNumber":2,"parameterNumberName":"U-component_of_CURRENTS"},"data":[0,0,0,-0.3797,-0.3801,-0.3947,-0.3948,-0.4023,-0.4024,0,0,0,0,0,0,0,0,0,0,0,-0.3743,-0.3744,-0.3797,-0.3801,-0.3947,-0.3948,-0.4023,-0.4024,0,0,0,0,0,0,0,0,0,0,0,-0.3742,-0.3744,-0.3746,-0.3802,-0.3947,-0.3948,-0.4023,-0.3936,0,0,0,0,0,0,0,0,0,0,-0.3805,-0.3719,-0.3744,-0.3746,-0.3803,-0.3947,-0.3948,-0.3932,-0.3941,-0.3932,0,-0.3974,0,-0.401,-0.4028,-0.4029,0,0,0,-0.3781,-0.3712,-0.3817,-0.3746,-0.3805,-0.3947,-0.3876,-0.3938,-0.3948,-0.3943,-0.3976,-0.398,-0.4012,-0.4029,-0.4029,-0.4299,-0.4301,0,0,-0.3773,-0.3701,-0.3811,-0.3824,-0.3867,-0.3871,-0.3881,-0.3945,-0.3923,-0.3976,-0.3982,-0.4013,-0.4029,-0.403,-0.4297,-0.43,0,0,0,-0.3764,-0.3694,-0.3797,-0.3819,-0.3861,-0.3876,-0.3887,-0.392,-0.3974,-0.3983,-0.4014,-0.403,-0.403,-0.4294,-0.4298,-0.4352,0,0,0,-0.3758,-0.3692,-0.3794,-0.3742,-0.3861,-0.3892,-0.3859,-0.3969,-0.3978,-0.4013,-0.403,-0.4031,-0.4291,-0.4296,-0.4345,-0.415,0,0,0,-0.3732,-0.3686,-0.3727,-0.374,-0.3821,-0.3894,-0.3948,-0.3972,-0.3997,-0.4029,-0.4031,-0.4289,-0.4295,-0.4338,-0.4147,-0.3931,0,0,0,-0.362,-0.3691,-0.3725,-0.3835,-0.382,-0.4068,-0.3948,-0.4078,-0.4127,-0.403,-0.4292,-0.4297,-0.4336,-0.4145,-0.3934,-0.355,-0.3508,0,0,-0.3662,-0.3692,-0.3778,-0.3816,-0.4019,-0.4044,-0.4247,-0.4232,-0.4207,-0.4251,-0.4259,-0.4347,-0.4147,-0.3932,-0.3891,-0.3836,0,0,0,-0.3766,-0.3796,-0.3886,-0.3992,-0.4188,-0.4248,-0.4357,-0.4386,-0.4422,-0.4267,-0.4453,-0.4321,-0.4182,-0.3964,-0.3926,-0.3887,-0.4325,-0.4324,-0.4323,-0.3595,-0.3769,-0.3864,-0.408,-0.4237,-0.4427,-0.4471,-0.4515,-0.4598,-0.4646,-0.4455,-0.4422,-0.4214,-0.4174,-0.4152,-0.4672,-0.4672,-0.4673,-0.4673,-0.3541,-0.3546,-0.3761,-0.3897,-0.4073,-0.4233,-0.4473,-0.4536,-0.4519,-0.4631,-0.4499,-0.4144,-0.413,-0.4123,-0.4678,-0.4677,-0.4676,-0.4676,-0.4676,-0.3321,-0.333,-0.3444,-0.3591,-0.3702,-0.3991,-0.3965,-0.4204,-0.4349,-0.4307,-0.3921,-0.3915,-0.3798,-0.4236,-0.4234,-0.4232,-0.4231,-0.423,-0.4229,-0.2962,-0.3097,-0.3064,-0.3262,-0.3286,-0.3386,-0.3622,-0.3624,-0.3648,-0.3773,-0.3771,-0.3788,-0.428,-0.417,-0.4203,-0.4208,-0.4211,-0.4213,-0.4215,-0.2605,-0.2681,-0.2635,-0.2638,-0.2721,-0.268,-0.2939,-0.2884,-0.2895,-0.2801,-0.3112,-0.3479,-0.3323,-0.3356,-0.3224,-0.3006,-0.3006,-0.3006,-0.3006,-0.2277,-0.2349,-0.221,-0.2161,-0.2138,-0.2329,-0.2098,-0.2208,-0.2384,-0.243,-0.2611,-0.2763,-0.2813,-0.2642,-0.269,-0.2553,-0.2171,-0.217,-0.217,-0.1959,-0.2007,-0.1812,-0.19,-0.1884,-0.191,-0.1746,-0.1792,-0.1991,-0.2155,-0.2638,-0.2673,-0.2943,-0.3023,-0.2807,-0.2877,-0.2671,0,0]},{"header":{"parameterUnit":"m.s-1","parameterCategory":2,"la1":30.2992,"la2":30.254,"lo1":-89.0895,"lo2":-89.0443,"dy":0.0025,"dx":0.0025,"nx":19,"ny":19,"refTime":"2026-05-13T21:00:00:Z","depth":"0","parameterNumber":3,"parameterNumberName":"V-component_of_CURRENTS"},"data":[0,0,0,0.0313,0.0316,0.0493,0.0494,0.0741,0.0743,0,0,0,0,0,0,0,0,0,0,0,0.0234,0.0234,0.0313,0.0317,0.0493,0.0494,0.0741,0.0743,0,0,0,0,0,0,0,0,0,0,0,0.0234,0.0234,0.0235,0.0317,0.0493,0.0494,0.074,0.0605,0,0,0,0,0,0,0,0,0,0,0.0433,0.0324,0.0234,0.0235,0.0318,0.0493,0.0494,0.0599,0.0614,0.0662,0,0.0668,0,0.0714,0.0759,0.076,0,0,0,0.0332,0.0311,0.0387,0.0235,0.0319,0.0493,0.0418,0.0607,0.0624,0.0682,0.0672,0.0682,0.0718,0.076,0.0762,0.095,0.095,0,0,0.0322,0.025,0.0374,0.0396,0.0339,0.0412,0.0423,0.0617,0.0608,0.0673,0.0688,0.0722,0.0762,0.0764,0.0949,0.095,0,0,0,0.0284,0.0242,0.0312,0.0385,0.0418,0.0417,0.043,0.0599,0.0629,0.0691,0.0725,0.0763,0.0766,0.0949,0.0949,0.0781,0,0,0,0.0279,0.0221,0.0307,0.0264,0.0413,0.0502,0.0406,0.0615,0.0639,0.0724,0.0763,0.0768,0.0949,0.0949,0.0785,0.0636,0,0,0,0.0231,0.0215,0.0233,0.026,0.0336,0.05,0.0541,0.0621,0.066,0.076,0.0769,0.0948,0.0949,0.0789,0.0645,0.061,0,0,0,0.0158,0.0087,0.023,0.0179,0.0333,0.0434,0.054,0.0623,0.0697,0.0765,0.0949,0.0949,0.079,0.0651,0.0615,0.0683,0.0664,0,0,0.0015,0.0068,0.0044,0.0177,0.0205,0.0412,0.0473,0.0615,0.0732,0.0888,0.0893,0.0784,0.0646,0.0611,0.0726,0.0705,0,0,0,-0.0034,-0.0067,-0.0028,0.003,0.0185,0.0315,0.0513,0.0605,0.0737,0.078,0.0847,0.0765,0.0748,0.0803,0.0788,0.1067,0.0953,0.0953,0.0953,-0.0324,-0.0215,-0.0247,-0.0092,0.0008,0.0267,0.036,0.0534,0.0689,0.0728,0.0677,0.0591,0.0653,0.0641,0.0929,0.0777,0.0776,0.0776,0.0776,-0.0545,-0.0549,-0.0401,-0.0401,-0.0174,-0.0071,0.0219,0.0344,0.0473,0.0598,0.0593,0.0683,0.0613,0.0928,0.0766,0.0767,0.0769,0.077,0.077,-0.0724,-0.0707,-0.0695,-0.0629,-0.0535,-0.0269,-0.018,0.0034,0.0252,0.0252,0.0402,0.0407,0.064,0.029,0.0289,0.0288,0.0288,0.0287,0.0287,-0.088,-0.0863,-0.0898,-0.0843,-0.0788,-0.0674,-0.0414,-0.0289,-0.0023,0.0183,0.0187,0.0664,0.0443,0.0411,0.0274,0.0276,0.0278,0.0279,0.028,-0.1035,-0.1022,-0.1075,-0.1064,-0.0968,-0.0898,-0.0691,-0.0383,-0.0242,-0.0101,0.0511,0.0201,0.0256,0.0274,0.0243,0.0068,0.0068,0.0068,0.0068,-0.1113,-0.1121,-0.1148,-0.1142,-0.1112,-0.097,-0.077,-0.0403,0.0176,0.0502,0.0581,0.0765,0.0762,0.0858,0.0863,0.085,0.0834,0.0835,0.0837,-0.1156,-0.1156,-0.1176,-0.1176,-0.1142,-0.1028,-0.0783,-0.0285,0.0545,0.0896,0.0949,0.0916,0.122,0.1191,0.1376,0.136,0.135,0,0]}],[{"header":{"parameterUnit":"m.s-1","parameterCategory":2,"la1":30.2992,"la2":30.254,"lo1":-89.0895,"lo2":-89.0443,"dy":0.0025,"dx":0.0025,"nx":19,"ny":19,"refTime":"2026-05-13T21:00:00:Z","depth":"2","parameterNumber":2,"parameterNumberName":"U-component_of_CURRENTS"},"data":[0,0,0,-0.3266,-0.327,-0.3489,-0.349,-0.3622,-0.3623,0,0,0,0,0,0,0,0,0,0,0,-0.3226,-0.3228,-0.3265,-0.327,-0.3489,-0.349,-0.3622,-0.3623,0,0,0,0,0,0,0,0,0,0,0,-0.3225,-0.3228,-0.323,-0.3271,-0.3489,-0.349,-0.3622,-0.3496,0,0,0,0,0,0,0,0,0,0,-0.3303,-0.321,-0.3227,-0.3231,-0.3272,-0.3488,-0.349,-0.3492,-0.3504,-0.3477,0,-0.3543,0,-0.3562,-0.3627,-0.3627,0,0,0,-0.3282,-0.32,-0.3325,-0.3231,-0.3274,-0.3488,-0.3393,-0.35,-0.3513,-0.3492,-0.3545,-0.355,-0.3565,-0.3627,-0.3628,-0.3866,-0.3868,0,0,-0.327,-0.3192,-0.3317,-0.3335,-0.337,-0.3386,-0.34,-0.351,-0.3496,-0.3546,-0.3554,-0.3567,-0.3628,-0.3628,-0.3864,-0.3866,0,0,0,-0.3227,-0.3182,-0.3307,-0.3329,-0.3369,-0.3392,-0.3408,-0.3491,-0.3554,-0.3555,-0.3568,-0.3628,-0.3629,-0.3861,-0.3865,-0.3922,0,0,0,-0.3221,-0.3159,-0.3302,-0.3247,-0.3368,-0.3431,-0.3386,-0.3548,-0.356,-0.3568,-0.3628,-0.363,-0.3859,-0.3863,-0.3915,-0.3673,0,0,0,-0.3209,-0.3152,-0.3209,-0.3244,-0.3338,-0.3432,-0.3499,-0.3552,-0.3565,-0.3627,-0.363,-0.3857,-0.3862,-0.3909,-0.3673,-0.3526,0,0,0,-0.3081,-0.3132,-0.3207,-0.3279,-0.3337,-0.3594,-0.3499,-0.3653,-0.373,-0.3628,-0.3859,-0.3864,-0.3907,-0.3673,-0.3529,-0.3208,-0.3171,0,0,-0.3072,-0.3128,-0.3185,-0.3258,-0.3399,-0.3561,-0.3745,-0.3785,-0.3786,-0.3808,-0.3815,-0.3917,-0.3673,-0.3527,-0.35,-0.3451,0,0,0,-0.3135,-0.3183,-0.3255,-0.3344,-0.3547,-0.3621,-0.3819,-0.3912,-0.398,-0.3849,-0.4004,-0.3843,-0.375,-0.3569,-0.3535,-0.3888,-0.3888,-0.3887,-0.3887,-0.3015,-0.3132,-0.3209,-0.3377,-0.3514,-0.3742,-0.3824,-0.3963,-0.4115,-0.4179,-0.3969,-0.3963,-0.3792,-0.3757,-0.4198,-0.4198,-0.4198,-0.4199,-0.4199,-0.298,-0.2993,-0.3142,-0.3253,-0.3374,-0.3558,-0.3767,-0.3883,-0.3963,-0.411,-0.4025,-0.3732,-0.3719,-0.4205,-0.4204,-0.4203,-0.4202,-0.4202,-0.4202,-0.2859,-0.2853,-0.297,-0.3057,-0.3149,-0.3367,-0.3357,-0.3587,-0.3765,-0.375,-0.3518,-0.3514,-0.3764,-0.379,-0.3788,-0.3787,-0.3785,-0.3784,-0.3783,-0.2599,-0.2712,-0.2701,-0.2852,-0.2888,-0.2942,-0.3116,-0.3135,-0.3198,-0.334,-0.3341,-0.3817,-0.383,-0.3736,-0.3759,-0.3764,-0.3767,-0.3769,-0.3771,-0.2326,-0.2393,-0.2363,-0.2388,-0.2466,-0.2409,-0.2603,-0.2562,-0.2615,-0.254,-0.31,-0.3124,-0.298,-0.3009,-0.2895,-0.2695,-0.2695,-0.2695,-0.2695,-0.2075,-0.213,-0.2015,-0.1983,-0.1982,-0.2116,-0.1923,-0.1971,-0.2173,-0.2252,-0.2273,-0.2425,-0.2476,-0.2314,-0.236,-0.2236,-0.1865,-0.1864,-0.1863,-0.1821,-0.1854,-0.1692,-0.1758,-0.1762,-0.1776,-0.1584,-0.1485,-0.1606,-0.1843,-0.2257,-0.2614,-0.2906,-0.296,-0.2771,-0.2821,-0.2646,0,0]},{"header":{"parameterUnit":"m.s-1","parameterCategory":2,"la1":30.2992,"la2":30.254,"lo1":-89.0895,"lo2":-89.0443,"dy":0.0025,"dx":0.0025,"nx":19,"ny":19,"refTime":"2026-05-13T21:00:00:Z","depth":"2","parameterNumber":3,"parameterNumberName":"V-component_of_CURRENTS"},"data":[0,0,0,0.0067,0.0071,0.0297,0.0298,0.0571,0.0573,0,0,0,0,0,0,0,0,0,0,0,-0.0009,-0.0008,0.0067,0.0071,0.0297,0.0298,0.0571,0.0573,0,0,0,0,0,0,0,0,0,0,0,-0.0009,-0.0008,-0.0007,0.0072,0.0297,0.0299,0.057,0.041,0,0,0,0,0,0,0,0,0,0,0.0195,0.0092,-0.0008,-0.0007,0.0073,0.0297,0.0299,0.0403,0.042,0.0455,0,0.0479,0,0.052,0.0589,0.0589,0,0,0,0.0098,0.0078,0.0159,-0.0007,0.0075,0.0296,0.0203,0.0413,0.0432,0.0478,0.0484,0.0494,0.0525,0.059,0.0591,0.0806,0.0807,0,0,0.0086,0.0019,0.0146,0.0171,0.012,0.0195,0.0209,0.0425,0.0426,0.0485,0.0501,0.0529,0.0592,0.0593,0.0806,0.0806,0,0,0,0.0032,0.0009,0.0087,0.0159,0.0195,0.0201,0.0218,0.0417,0.0448,0.0504,0.0533,0.0593,0.0596,0.0805,0.0806,0.0673,0,0,0,0.0025,-0.0023,0.008,0.0042,0.0191,0.0304,0.0204,0.0434,0.0459,0.0531,0.0593,0.0598,0.0804,0.0805,0.0675,0.0486,0,0,0,-0.0017,-0.0028,-0.0001,0.0038,0.0126,0.0302,0.0346,0.0441,0.0475,0.059,0.0599,0.0804,0.0805,0.0677,0.0495,0.0478,0,0,0,-0.0091,-0.0139,-0.0003,-0.0045,0.0124,0.0248,0.0346,0.0449,0.0538,0.0594,0.0804,0.0806,0.0678,0.0501,0.0483,0.0544,0.0528,0,0,-0.0211,-0.0155,-0.018,-0.0054,-0.0024,0.022,0.0313,0.0469,0.0579,0.0735,0.0741,0.0675,0.0496,0.0479,0.0631,0.0611,0,0,0,-0.0258,-0.0273,-0.0239,-0.0182,-0.0024,0.0111,0.0353,0.0484,0.0639,0.0637,0.0743,0.0633,0.0627,0.0678,0.0664,0.0813,0.0813,0.0813,0.0812,-0.0475,-0.0397,-0.0418,-0.029,-0.0187,0.0087,0.0197,0.0427,0.0611,0.0674,0.0582,0.0533,0.0593,0.0581,0.0718,0.0717,0.0717,0.0717,0.0716,-0.0653,-0.0656,-0.0536,-0.0537,-0.0342,-0.0209,0.0089,0.0234,0.0409,0.0553,0.056,0.0602,0.0556,0.0707,0.0709,0.071,0.0711,0.0712,0.0712,-0.079,-0.0777,-0.0769,-0.0721,-0.0628,-0.0384,-0.0279,-0.0059,0.0179,0.0176,0.035,0.0354,0.0374,0.0261,0.026,0.0259,0.0259,0.0258,0.0258,-0.0914,-0.09,-0.0933,-0.0885,-0.0835,-0.0729,-0.0486,-0.0355,-0.0083,0.0125,0.013,0.0378,0.0393,0.035,0.0244,0.0246,0.0248,0.0249,0.025,-0.1046,-0.1037,-0.1088,-0.1079,-0.0987,-0.0913,-0.0717,-0.0418,-0.0272,-0.0137,0.015,0.0157,0.0188,0.0206,0.0162,0.0011,0.0011,0.0012,0.0012,-0.1113,-0.1122,-0.1154,-0.1151,-0.1116,-0.0975,-0.0775,-0.0447,-0.0131,0.0033,0.0032,0.0179,0.0189,0.0229,0.0245,0.0207,0.0067,0.0067,0.0067,-0.1157,-0.1157,-0.1182,-0.1183,-0.1146,-0.1023,-0.0792,-0.0385,0.0011,0.0066,0.0013,0.0021,0.0244,0.0256,0.0332,0.0353,0.0297,0,0]}],[{"header":{"parameterUnit":"m.s-1","parameterCategory":2,"la1":30.2992,"la2":30.254,"lo1":-89.0895,"lo2":-89.0443,"dy":0.0025,"dx":0.0025,"nx":19,"ny":19,"refTime":"2026-05-13T21:00:00:Z","depth":"4","parameterNumber":2,"parameterNumberName":"U-component_of_CURRENTS"},"data":[0,0,0,-0.0991,-0.0993,-0.108,-0.108,-0.1277,-0.1279,0,0,0,0,0,0,0,0,0,0,0,-0.0973,-0.0974,-0.0991,-0.0993,-0.108,-0.108,-0.1277,-0.1279,0,0,0,0,0,0,0,0,0,0,0,-0.0973,-0.0974,-0.0976,-0.0994,-0.108,-0.108,-0.1276,-0.1188,0,0,0,0,0,0,0,0,0,0,-0.1092,-0.1107,-0.0974,-0.0976,-0.0994,-0.108,-0.108,-0.1183,-0.1194,-0.1265,0,-0.1295,0,-0.1294,-0.1295,-0.1296,0,0,0,-0.0986,-0.1098,-0.1081,-0.0976,-0.0995,-0.108,-0.1039,-0.1188,-0.12,-0.128,-0.1298,-0.1304,-0.1297,-0.1297,-0.1298,-0.1414,-0.1414,0,0,-0.0981,-0.1027,-0.1073,-0.109,-0.1043,-0.1036,-0.1042,-0.1194,-0.1245,-0.1298,-0.1308,-0.13,-0.1298,-0.13,-0.1415,-0.1414,0,0,0,-0.0972,-0.1025,-0.1003,-0.1082,-0.1093,-0.1039,-0.1045,-0.1238,-0.1221,-0.131,-0.1303,-0.13,-0.1303,-0.1415,-0.1414,-0.1554,0,0,0,-0.0969,-0.1018,-0.1002,-0.1035,-0.109,-0.1166,-0.1086,-0.121,-0.1226,-0.1302,-0.13,-0.1305,-0.1416,-0.1415,-0.1552,-0.1673,0,0,0,-0.0965,-0.1019,-0.1026,-0.1036,-0.107,-0.1162,-0.1154,-0.1212,-0.1223,-0.1296,-0.1305,-0.1416,-0.1415,-0.1549,-0.1665,-0.1747,0,0,0,-0.1008,-0.1096,-0.1029,-0.1155,-0.1069,-0.111,-0.1153,-0.1261,-0.1334,-0.1301,-0.1416,-0.1415,-0.1549,-0.1661,-0.1742,-0.1433,0,0,0,-0.1137,-0.1114,-0.1187,-0.1128,-0.1186,-0.1096,-0.1175,-0.1318,-0.1322,-0.1373,-0.1375,-0.1553,-0.1665,-0.1746,-0.1363,0,0,0,0,-0.124,-0.1262,-0.1276,-0.1311,-0.1298,-0.1311,-0.132,-0.1329,-0.1421,-0.1357,-0.1489,-0.1555,-0.1602,-0.1402,-0.1409,-0.1409,-0.1409,-0.1409,-0.1409,-0.1369,-0.1373,-0.1449,-0.1423,-0.1471,-0.1462,-0.1499,-0.1496,-0.1458,-0.1502,-0.1619,-0.1716,-0.1498,-0.1527,-0.1528,-0.1529,-0.1529,-0.1529,-0.153,-0.1449,-0.1478,-0.1527,-0.1594,-0.1615,-0.1664,-0.1702,-0.1698,-0.1738,-0.1662,-0.17,-0.1499,-0.1542,-0.154,-0.1538,-0.1536,-0.1535,-0.1535,-0.1534,-0.1444,-0.1464,-0.152,-0.1614,-0.175,-0.1794,-0.1909,-0.1944,-0.1933,-0.1987,-0.1748,-0.1824,-0.1872,-0.1996,-0.1997,-0.1998,-0.1999,-0.1999,-0.2,-0.1402,-0.1459,-0.15,-0.1616,-0.17,-0.1847,-0.2019,-0.2041,-0.209,-0.1907,-0.2048,-0.1874,-0.1859,-0.1896,-0.2013,-0.2011,-0.2009,-0.2008,-0.2007,-0.1375,-0.1398,-0.1428,-0.1495,-0.1641,-0.1725,-0.1958,-0.197,-0.1989,-0.1923,-0.1833,-0.1838,-0.1777,-0.1765,-0.1797,-0.189,-0.1887,-0.1883,0,-0.1336,-0.1352,-0.1356,-0.1403,-0.1469,-0.1649,-0.1631,-0.1707,-0.1758,-0.1688,-0.1986,-0.1886,-0.1884,-0.1812,-0.1796,-0.1829,0,0,0,-0.1293,-0.1296,-0.1258,-0.1293,-0.1368,-0.1444,-0.1604,-0.1548,-0.1763,-0.1686,-0.1797,-0.182,-0.1904,-0.2053,-0.1972,-0.1954,-0.2011,0,0]},{"header":{"parameterUnit":"m.s-1","parameterCategory":2,"la1":30.2992,"la2":30.254,"lo1":-89.0895,"lo2":-89.0443,"dy":0.0025,"dx":0.0025,"nx":19,"ny":19,"refTime":"2026-05-13T21:00:00:Z","depth":"4","parameterNumber":3,"parameterNumberName":"V-component_of_CURRENTS"},"data":[0,0,0,-0.0632,-0.0632,-0.067,-0.067,-0.0682,-0.0682,0,0,0,0,0,0,0,0,0,0,0,-0.0619,-0.0619,-0.0632,-0.0632,-0.067,-0.067,-0.0682,-0.0682,0,0,0,0,0,0,0,0,0,0,0,-0.0619,-0.0619,-0.0619,-0.0633,-0.067,-0.067,-0.0682,-0.0665,0,0,0,0,0,0,0,0,0,0,-0.0633,-0.0622,-0.0619,-0.0619,-0.0633,-0.067,-0.067,-0.0664,-0.0666,-0.0653,0,-0.0655,0,-0.0665,-0.0681,-0.0681,0,0,0,-0.0639,-0.0621,-0.0631,-0.0619,-0.0633,-0.067,-0.0655,-0.0665,-0.0667,-0.0655,-0.0656,-0.0657,-0.0665,-0.0681,-0.0681,-0.0694,-0.0694,0,0,-0.0637,-0.0625,-0.063,-0.0632,-0.0637,-0.0654,-0.0656,-0.0667,-0.0664,-0.0656,-0.0657,-0.0665,-0.0681,-0.0681,-0.0694,-0.0694,0,0,0,-0.0627,-0.0624,-0.0635,-0.0631,-0.0639,-0.0655,-0.0657,-0.0664,-0.0668,-0.0657,-0.0665,-0.0681,-0.0681,-0.0693,-0.0694,-0.0622,0,0,0,-0.0626,-0.0617,-0.0634,-0.0628,-0.0639,-0.0656,-0.0654,-0.0668,-0.0669,-0.0665,-0.0681,-0.0681,-0.0693,-0.0694,-0.0624,-0.0583,0,0,0,-0.0618,-0.0617,-0.062,-0.0627,-0.064,-0.0656,-0.0662,-0.0669,-0.0674,-0.0681,-0.0681,-0.0693,-0.0693,-0.0625,-0.0586,-0.0497,0,0,0,-0.0607,-0.0612,-0.0619,-0.0626,-0.064,-0.0686,-0.0662,-0.0691,-0.0702,-0.0681,-0.0693,-0.0694,-0.0625,-0.0588,-0.05,-0.0557,0,0,0,-0.0609,-0.0612,-0.0617,-0.0625,-0.0647,-0.0682,-0.0699,-0.0696,-0.0702,-0.0687,-0.0688,-0.0623,-0.0587,-0.0498,-0.0588,0,0,0,0,-0.0615,-0.0624,-0.0633,-0.0644,-0.0674,-0.0677,-0.0711,-0.0695,-0.0667,-0.0708,-0.0654,-0.0633,-0.0578,-0.0624,-0.0696,-0.0696,-0.0696,-0.0696,-0.0696,-0.0614,-0.0623,-0.0639,-0.0658,-0.0671,-0.0685,-0.0663,-0.065,-0.0677,-0.0647,-0.0597,-0.0514,-0.0565,-0.063,-0.063,-0.0629,-0.0629,-0.0629,-0.0629,-0.0647,-0.0666,-0.0648,-0.0676,-0.0657,-0.0673,-0.0608,-0.0591,-0.0505,-0.0561,-0.051,-0.0577,-0.0622,-0.0624,-0.0625,-0.0625,-0.0626,-0.0626,-0.0627,-0.0685,-0.0691,-0.0708,-0.0721,-0.0692,-0.0666,-0.0584,-0.0523,-0.0437,-0.0378,-0.0411,-0.0449,-0.0425,-0.035,-0.0349,-0.0349,-0.0348,-0.0348,-0.0348,-0.0726,-0.0734,-0.0777,-0.0776,-0.0774,-0.0716,-0.0583,-0.0488,-0.0376,-0.0331,-0.0352,-0.0419,-0.0428,-0.041,-0.0339,-0.034,-0.0342,-0.0342,-0.0343,-0.0794,-0.0808,-0.086,-0.0881,-0.0861,-0.0803,-0.0676,-0.0442,-0.0323,-0.021,-0.0291,-0.0296,-0.0313,-0.0324,-0.0303,-0.0197,-0.0197,-0.0198,0,-0.0844,-0.0851,-0.0924,-0.0953,-0.0929,-0.0846,-0.068,-0.0522,-0.0337,-0.0355,-0.0329,-0.0433,-0.0433,-0.047,-0.0479,-0.0465,0,0,0,-0.0896,-0.0901,-0.0956,-0.0975,-0.0955,-0.0758,-0.0626,-0.0545,-0.0388,-0.0243,-0.0207,-0.0205,-0.0353,-0.0313,-0.035,-0.0361,-0.0333,0,0]}]]